Home > Weather > Hamilton > Past weeks

Flag for Canada Past Weather in Hamilton, Ontario, Canada — Yesterday and Last 2 Weeks

Now
68 °F

Passing clouds.


Feels Like: 68 °F
Forecast: 62 / 81 °F
Wind: 7 mph from Northwest

Location: Hamilton Airport

Current Time: Aug 26, 2016 at 11:17:27 PM

Latest Report: Aug 26, 2016 at 10:00 PM


Visibility: 15 mi

Pressure: 30.14 "Hg

Humidity: 69%

Dew Point: 57 °F

Location of HamiltonLocation

Past Weather in Hamilton — Graph

°F

Hamilton Temperature Yesterday

Maximum temperature yesterday: 81 °F (at 11:00 AM)
Minimum temperature yesterday: 70 °F (at 10:00 PM)
Average temperature yesterday: 75 °F

High & Low Weather Summary for the Past Weeks

 TemperatureHumidityPressure
High86 °F (Aug 12, 12:00 PM)100% (Aug 13, 4:00 AM)30.28 "Hg (Aug 13, 4:00 AM)
Low54 °F (Aug 23, 6:00 AM)45% (Aug 19, 3:00 PM)29.59 "Hg (Aug 21, 3:00 AM)
Average73 °F80%29.99 "Hg
* Reported Aug 11 10:00 PM — Aug 26 10:00 PM, Hamilton, Weather by CustomWeather, © 2016

Note: Actual official high and low records may vary slightly from our data, if they occured in-between our weather recording intervals... More about our weather records

Advertising

Hamilton Weather History for the Previous 24 Hours

Scroll right to see more
 ConditionsComfort  
Time TempWeatherWind HumidityBarometerVisibility
10:00 PM
Fri, Aug 26
68 °FPassing clouds.7 mph69%30.14 "Hg15 mi
9:00 PM72 °FScattered clouds.6 mph61%30.13 "Hg15 mi
8:00 PM73 °FPassing clouds.6 mph61%30.11 "Hg15 mi
7:00 PM79 °FPassing clouds.9 mph51%30.10 "Hg15 mi
6:00 PM81 °FPassing clouds.9 mph54%30.09 "Hg15 mi
5:00 PM81 °FPassing clouds.9 mph54%30.09 "Hg15 mi
4:00 PM81 °FPassing clouds.10 mph58%30.09 "Hg15 mi
3:00 PM81 °FPassing clouds.13 mph62%30.10 "Hg15 mi
2:00 PM79 °FPassing clouds.12 mph61%30.10 "Hg15 mi
1:00 PM79 °FPassing clouds.9 mph61%30.11 "Hg15 mi
12:00 PM77 °FPassing clouds.9 mph65%30.11 "Hg15 mi
11:00 AM77 °FPassing clouds.6 mph69%30.11 "Hg15 mi
10:00 AM73 °FPassing clouds.5 mph89%30.10 "Hg15 mi
9:00 AM72 °FPassing clouds.5 mph88%30.08 "Hg15 mi
8:00 AM70 °FPassing clouds.3 mph94%30.07 "Hg15 mi
7:00 AM68 °FPassing clouds.6 mph94%30.06 "Hg15 mi
6:00 AM68 °FFog.9 mph94%30.04 "Hg1 mi
5:51 AM68 °FFog.7 mph94%30.04 "Hg1 mi
5:00 AM66 °FFog.6 mph100%30.02 "Hg0 mi
4:00 AM66 °FFog.7 mph100%30.01 "Hg1 mi
3:00 AM66 °FPassing clouds.6 mph100%30.00 "Hg9 mi
2:00 AM68 °FPassing clouds.7 mph100%29.98 "Hg7 mi
1:00 AM70 °FPassing clouds.7 mph100%29.96 "Hg12 mi
12:00 AM70 °FPassing clouds.7 mph100%29.96 "Hg12 mi
11:00 PM
Thu, Aug 25
70 °FPassing clouds.6 mph100%29.94 "Hg15 mi
Weather by CustomWeather, © 2016

See weather overviewHow to use our weather pages